Main page
METAR-TAF:

METAR-TAF

Airports :

Skylark Field

Killeen, Texas, United States

latitude: 31-05N, longitude: 097-41W, elevation: 846 ft

Current weather observation

The report was made 43 minutes ago, at 03:56 UTC
Wind 13 mph from the North
Temperature 43°F
Humidity 70%
Pressure 30.64 in. Hg
Visibility: 10 miles
Clear sky

METAR: KILE 210356Z AUTO 01011KT 10SM CLR 06/01 A3064 RMK AO2 SLP375 T00560006

Time: 22:39 (04:39 UTC)


TAF: missing

Weather observations and forecasts of more than 4000 airports (METAR and TAF reports).

The available stations are represented by yellow and red dots on the map.

Hover mouse over dot to see the name of the station.

Then click to see weather observations and forecasts.

To change the map : click on the green buttons with a black cross to zoom in, on the green button with a dash to zoom out, or on the green arrows for adjacent maps.


METAR-TAF: